Total_Precipitation_Accumulation
0.00 0.00 0.00 0.00 0.00 0.00 0.00 0.00 0.00 0.00 0.00 0.00 0.00 0.00 0.00 0.00 0.00 0.00 0.00 0.00 0.01 0.01 0.01 0.01 0.01 0.01 0.01 0.01 0.00 0.00 0.00 0.00 0.00 0.01 0.01 0.02 0.03 0.04 0.03 0.02 0.04 0.08 0.04
0.00 0.00 0.00 0.00 0.00 0.00 0.00 0.00 0.00 0.00 0.00 0.00 0.00 0.00 0.00 0.00 0.00 0.00 0.00 0.01 0.01 0.01 0.01 0.01 0.01 0.01 0.01 0.00 0.00 0.00 0.00 0.00 0.01 0.01 0.01 0.02 0.04 0.04 0.02 0.01 0.03 0.05 0.02
0.00 0.00 0.00 0.00 0.00 0.00 0.00 0.00 0.00 0.00 0.00 0.00 0.00 0.00 0.00 0.00 0.00 0.00 0.00 0.00 0.00 0.00 0.00 0.01 0.01 0.01 0.00 0.00 0.00 0.00 0.00 0.00 0.00 0.00 0.01 0.01 0.02 0.03 0.03 0.01 0.00 0.00 0.01
0.00 0.00 0.00 0.00 0.00 0.00 0.00 0.00 0.00 0.00 0.00 0.00 0.00 0.00 0.00 0.00 0.00 0.00 0.00 0.00 0.00 0.00 0.00 0.00 0.00 0.00 0.00 0.00 0.00 0.00 0.00 0.00 0.00 0.00 0.04 0.10 0.02 0.02 0.02 0.00 0.00 0.00 0.00
0.00 0.00 0.00 0.00 0.00 0.00 0.00 0.00 0.00 0.00 0.00 0.00 0.00 0.00 0.00 0.00 0.00 0.00 0.00 0.00 0.00 0.00 0.00 0.00 0.00 0.00 0.00 0.00 0.00 0.00 0.00 0.00 0.00 0.00 0.03 0.16 0.09 0.03 0.03 0.01 0.00 0.00 0.00
0.00 0.00 0.00 0.00 0.00 0.00 0.00 0.00 0.00 0.00 0.00 0.00 0.00 0.00 0.00 0.00 0.00 0.01 0.01 0.00 0.00 0.00 0.00 0.00 0.00 0.00 0.00 0.00 0.00 0.00 0.00 0.00 0.00 0.00 0.01 0.05 0.11 0.09 0.07 0.06 0.02 0.00 0.00
0.00 0.00 0.00 0.00 0.00 0.00 0.00 0.00 0.00 0.00 0.00 0.00 0.00 0.00 0.00 0.00 0.00 0.00 0.00 0.00 0.00 0.00 0.00 0.00 0.00 0.00 0.00 0.00 0.00 0.00 0.00 0.00 0.00 0.01 0.01 0.03 0.09 0.10 0.21 0.32 0.22 0.14 0.07
0.00 0.00 0.00 0.00 0.00 0.00 0.00 0.00 0.00 0.00 0.00 0.00 0.00 0.00 0.00 0.00 0.00 0.00 0.00 0.00 0.00 0.00 0.00 0.00 0.00 0.00 0.00 0.00 0.00 0.01 0.03 0.03 0.02 0.04 0.03 0.04 0.06 0.09 0.32 0.47 0.42 0.39 0.31
0.00 0.00 0.01 0.00 0.00 0.00 0.00 0.00 0.00 0.00 0.00 0.00 0.00 0.00 0.00 0.00 0.00 0.00 0.00 0.00 0.00 0.00 0.00 0.00 0.00 0.00 0.00 0.01 0.01 0.02 0.05 0.05 0.03 0.07 0.03 0.04 0.06 0.12 0.30 0.35 0.33 0.41 0.39
0.00 0.01 0.01 0.01 0.01 0.00 0.00 0.00 0.00 0.00 0.00 0.00 0.00 0.00 0.00 0.00 0.00 0.00 0.00 0.00 0.00 0.01 0.01 0.01 0.01 0.01 0.01 0.01 0.02 0.03 0.05 0.03 0.01 0.03 0.02 0.03 0.08 0.22 0.34 0.33 0.36 0.41 0.39
0.01 0.01 0.01 0.01 0.01 0.01 0.01 0.02 0.02 0.02 0.02 0.01 0.01 0.01 0.01 0.00 0.00 0.01 0.02 0.05 0.06 0.08 0.08 0.07 0.07 0.06 0.07 0.04 0.04 0.11 0.09 0.01 0.01 0.03 0.02 0.03 0.08 0.20 0.34 0.40 0.41 0.38 0.39
0.01 0.01 0.01 0.01 0.01 0.02 0.02 0.03 0.03 0.04 0.05 0.03 0.03 0.05 0.05 0.06 0.04 0.02 0.08 0.16 0.19 0.27 0.29 0.34 0.45 0.37 0.24 0.11 0.19 0.44 0.18 0.07 0.08 0.11 0.11 0.08 0.16 0.30 0.36 0.37 0.35 0.32 0.34
0.03 0.03 0.03 0.02 0.01 0.02 0.02 0.02 0.02 0.04 0.11 0.12 0.11 0.17 0.22 0.21 0.17 0.12 0.20 0.29 0.37 0.49 0.51 0.71 0.83 0.50 0.39 0.39 0.38 0.46 0.34 0.28 0.28 0.39 0.37 0.41 0.44 0.51 0.51 0.44 0.40 0.37 0.35
0.09 0.10 0.12 0.10 0.06 0.04 0.03 0.03 0.03 0.06 0.10 0.15 0.20 0.24 0.33 0.30 0.29 0.32 0.32 0.28 0.38 0.52 0.72 0.70 0.70 0.73 0.78 0.65 0.61 0.65 0.57 0.47 0.46 0.65 0.85 0.84 0.79 0.71 0.73 0.64 0.50 0.45 0.44
0.20 0.24 0.28 0.30 0.23 0.19 0.14 0.10 0.08 0.09 0.11 0.15 0.25 0.31 0.51 0.66 0.63 0.68 0.54 0.50 0.44 0.68 0.94 1.00 0.91 1.00 1.10 1.00 0.77 0.68 0.69 0.62 0.55 0.56 0.59 0.66 0.75 0.68 0.72 0.72 0.57 0.54 0.52
0.33 0.46 0.55 0.62 0.58 0.52 0.43 0.32 0.29 0.28 0.28 0.32 0.44 0.59 0.96 1.06 0.91 0.90 0.82 0.78 0.64 0.78 0.98 1.11 1.03 1.13 1.05 1.01 0.71 0.59 0.62 0.61 0.54 0.50 0.45 0.46 0.53 0.54 0.51 0.58 0.62 0.60 0.55
0.65 0.84 1.02 1.15 1.10 1.04 0.95 0.80 0.68 0.59 0.56 0.63 0.81 0.97 1.17 1.29 1.31 1.42 1.28 0.95 0.77 0.89 0.97 0.93 0.90 1.10 0.89 0.82 0.69 0.70 0.65 0.54 0.52 0.48 0.44 0.40 0.35 0.42 0.38 0.40 0.52 0.56 0.56
1.12 1.48 1.80 1.95 1.98 1.94 1.66 1.38 1.19 1.10 1.04 1.09 1.14 1.08 1.01 1.12 1.25 1.35 1.04 0.70 0.72 0.93 1.02 0.93 0.89 1.05 0.96 0.83 0.71 0.68 0.59 0.46 0.37 0.35 0.31 0.28 0.23 0.16 0.16 0.28 0.41 0.49 0.61
1.56 2.12 2.63 2.83 2.67 2.45 1.96 1.56 1.29 1.33 1.31 1.26 1.11 0.88 0.72 0.63 0.67 0.74 0.53 0.42 0.54 0.67 0.61 0.51 0.63 0.81 0.80 0.79 0.74 0.51 0.39 0.30 0.21 0.19 0.16 0.12 0.13 0.14 0.11 0.14 0.28 0.40 0.54
1.76 2.36 2.80 3.06 2.76 2.29 1.96 1.74 1.42 1.29 1.19 1.10 0.87 0.62 0.43 0.35 0.31 0.34 0.29 0.22 0.29 0.29 0.22 0.31 0.47 0.57 0.46 0.50 0.52 0.31 0.24 0.20 0.18 0.15 0.11 0.08 0.07 0.08 0.07 0.09 0.16 0.25 0.38
2.13 2.79 3.05 2.84 2.23 1.81 1.56 1.39 1.18 1.00 0.85 0.70 0.59 0.45 0.33 0.28 0.20 0.16 0.12 0.11 0.15 0.11 0.06 0.16 0.28 0.25 0.15 0.32 0.36 0.19 0.11 0.08 0.09 0.09 0.08 0.05 0.04 0.04 0.05 0.07 0.11 0.18 0.21
2.22 2.42 2.36 2.00 1.44 1.10 0.88 0.74 0.58 0.48 0.44 0.38 0.29 0.22 0.19 0.15 0.11 0.08 0.06 0.04 0.04 0.05 0.03 0.06 0.17 0.21 0.17 0.25 0.28 0.21 0.09 0.05 0.04 0.03 0.04 0.04 0.02 0.04 0.04 0.08 0.14 0.20 0.25
1.94 1.68 1.28 0.93 0.66 0.57 0.44 0.36 0.25 0.19 0.18 0.17 0.16 0.14 0.11 0.09 0.07 0.05 0.04 0.02 0.01 0.02 0.02 0.04 0.10 0.14 0.15 0.14 0.19 0.24 0.11 0.03 0.04 0.03 0.03 0.05 0.06 0.06 0.09 0.15 0.23 0.32 0.41
1.27 0.87 0.57 0.43 0.35 0.30 0.25 0.23 0.21 0.16 0.15 0.14 0.14 0.14 0.13 0.09 0.08 0.06 0.04 0.02 0.02 0.02 0.03 0.03 0.05 0.10 0.12 0.09 0.08 0.11 0.13 0.13 0.10 0.04 0.03 0.03 0.05 0.08 0.14 0.20 0.30 0.39 0.45
0.52 0.46 0.43 0.35 0.35 0.34 0.29 0.25 0.23 0.19 0.17 0.17 0.18 0.18 0.20 0.20 0.16 0.13 0.10 0.07 0.05 0.04 0.05 0.06 0.07 0.09 0.11 0.11 0.12 0.13 0.17 0.21 0.19 0.13 0.05 0.03 0.07 0.10 0.18 0.29 0.38 0.42 0.45
0.22 0.23 0.24 0.24 0.31 0.37 0.35 0.31 0.27 0.23 0.20 0.18 0.17 0.17 0.19 0.21 0.22 0.21 0.18 0.16 0.13 0.11 0.09 0.07 0.07 0.08 0.12 0.16 0.18 0.18 0.20 0.18 0.16 0.19 0.14 0.10 0.12 0.14 0.28 0.44 0.49 0.54 0.54